Home   Weather   Lafayette   Past weeks

Flag for USA Past Weather in Lafayette, Louisiana, USA — Yesterday and Last 2 Weeks

Now
47 °F

Passing clouds.


Feels Like: 46 °F
Forecast: 36 / 71 °F
Wind: 3 mph from North

Location: Lafayette Regional Airport

Current Time: Dec 11, 2016 at 6:16:12 am

Latest Report: Dec 11, 2016 at 4:53 am


Visibility: 10 mi

Pressure: 30.21 "Hg

Humidity: 64%

Dew Point: 35 °F

Location of LafayetteLocation

Past Weather in Lafayette — Graph

°F

Lafayette Temperature Yesterday

Maximum temperature yesterday: 57 °F (at 3:53 pm)
Minimum temperature yesterday: 32 °F (at 3:53 am)
Average temperature yesterday: 44 °F

High & Low Weather Summary for the Past Weeks

 TemperatureHumidityPressure
High82 °F (Nov 29, 12:53 pm)100% (Nov 29, 6:53 am)30.59 "Hg (Nov 29, 6:53 am)
Low32 °F (Dec 10, 3:53 am)23% (Dec 10, 3:53 pm)29.57 "Hg (Nov 28, 3:53 pm)
Average57 °F76%30.06 "Hg
* Reported Nov 26 4:53 am — Dec 11 4:53 am, Lafayette, Weather by CustomWeather, © 2016

Note: Actual official high and low records may vary slightly from our data, if they occured in-between our weather recording intervals... More about our weather records

Advertising

Lafayette Weather History for the Previous 24 Hours

Scroll right to see more
 ConditionsComfort  
Time TempWeatherWind HumidityBarometerVisibility
4:53 am
Sun, Dec 11
47 °FPassing clouds.3 mph64%30.21 "Hg10 mi
3:53 am48 °FPassing clouds.5 mph56%30.24 "Hg10 mi
2:53 am49 °FOvercast.6 mph50%30.25 "Hg10 mi
1:53 am47 °FOvercast.8 mph50%30.25 "Hg10 mi
12:53 am47 °FOvercast.6 mph48%30.30 "Hg10 mi
11:53 pm
Sat, Dec 10
46 °FOvercast.5 mph54%30.32 "Hg10 mi
10:53 pm45 °FClear.3 mph53%30.35 "Hg10 mi
9:53 pm46 °FClear.5 mph54%30.36 "Hg10 mi
8:53 pm47 °FClear.3 mph54%30.36 "Hg10 mi
7:53 pm46 °FClear.No wind66%30.37 "Hg10 mi
6:53 pm50 °FClear.No wind41%30.36 "Hg10 mi
5:53 pm51 °FClear.No wind42%30.36 "Hg10 mi
4:53 pm55 °FSunny.5 mph28%30.37 "Hg10 mi
3:53 pm57 °FSunny.5 mph23%30.40 "Hg10 mi
2:53 pm56 °FSunny.8 mph24%30.40 "Hg10 mi
1:53 pm55 °FSunny.6 mph27%30.41 "Hg10 mi
12:53 pm54 °FSunny.No wind27%30.44 "Hg10 mi
11:53 am51 °FSunny.7 mph32%30.48 "Hg10 mi
10:53 am48 °FSunny.6 mph39%30.52 "Hg10 mi
9:53 am45 °FSunny.6 mph45%30.55 "Hg10 mi
8:53 am41 °FSunny.8 mph53%30.54 "Hg10 mi
7:53 am37 °FSunny.8 mph65%30.53 "Hg10 mi
6:53 am32 °FClear.7 mph82%30.53 "Hg10 mi
Weather by CustomWeather, © 2016

See weather overviewHow to use our weather pages